User: anonymous   Login
Location: Unspecified
(0.0000°N, 0.0000°E)
Time: 07:46:26
(UTC+00:00)
Language:

SPROUT - Orbit

View from above orbital plane
View from above orbital plane
View from above satellite
View from above satellite

Ground track
Ground track

The orbit data is extracted from the following two-line orbital elements,

1 39770U 14029E   20299.88747731 +.00000972 +00000-0 +11217-3 0  9992
2 39770 097.9042 045.6776 0007989 258.2780 101.7515 14.87924904348451
Epoch (UTC): 25 October 2020 21:17:58
Eccentricity: 0.0007989
inclination: 97.9042°
perigee height: 599 km
apogee height: 610 km
right ascension of ascending node: 45.6776°
argument of perigee: 258.2780°
revolutions per day: 14.87924904
mean anomaly at epoch: 101.7515°
orbit number at epoch: 34845

The dashed part of the orbit path shows where the satellite is in the earth's shadow,  

DLR